Location: Göcklingen
(49.1618°N, 8.0402°E)
Time: 06:59:42
(UTC+00:00)

Daily predictions for brighter satellites

Satellite Brightness Start Highest point End
(mag) Time Altitude Azimuth Time Altitude Azimuth Time Altitude Azimuth
Tiangong 2.7 20:13:00 10° SW 20:15:26 20° S 20:17:52 10° SE
Cosmos 1975 Rocket 3.1 20:12:03 10° S 20:16:29 73° E 20:20:55 10° NNE
CARTOSAT-1 3.6 20:13:52 10° SSE 20:18:10 80° ENE 20:22:31 10° NNW
IRAS Rocket 4.3 20:14:09 10° NNE 20:19:45 65° ESE 20:25:17 10° S
Cosmos 1656 4.3 20:15:30 10° NNW 20:20:43 44° NE 20:25:58 10° SE
Cosmos 2084 3.5 20:17:37 10° SSW 20:21:16 43° SE 20:24:57 10° NE
USA 276 2.8 20:26:24 10° SSW 20:29:04 29° SSE 20:31:44 10° E
ATLAS 2AS CENTAUR R/B 2.8 20:23:57 10° NW 20:31:11 90° SSW 20:37:54 10° SE
Spot 2 Rocket 3.7 20:26:19 10° SSE 20:31:19 64° ENE 20:36:24 10° N
Cosmos 1544 Rocket 3.6 20:28:52 10° N 20:33:12 71° E 20:37:30 10° SSE
Meteor 1-24 Rocket 3.6 20:28:42 10° S 20:34:00 77° E 20:39:26 10° NNE
MetOp-B 4.5 20:29:06 10° S 20:34:25 67° WSW 20:39:47 10° NNW
Lacrosse 5 1.9 20:30:43 10° WNW 20:35:51 82° SW 20:40:57 10° SE
Cosmos 1371 Rocket 4.0 20:31:08 10° SSW 20:36:22 87° ESE 20:41:42 10° NNE
USA 234 3.9 20:30:21 10° E 20:36:43 55° NNE 20:43:06 10° WNW
Cosmos 1452 Rocket 4.4 20:32:41 10° SSE 20:37:12 30° E 20:41:43 10° NE
X-37B 1.4 20:36:31 10° SW 20:38:55 25° SSE 20:41:20 10° ESE
Cosmos 1833 Rocket 4.0 20:36:20 10° SSE 20:40:25 21° E 20:44:29 10° NE
Terra 2.2 20:38:03 10° SSE 20:42:41 54° ENE 20:47:20 10° N
FALCON 9 DEB 4.0 20:42:00 10° W 20:45:11 50° NNW 20:48:24 10° ENE
Cosmos 2184 Rocket 4.3 20:39:56 10° N 20:46:01 55° ENE 20:51:50 11° SSE
Resurs 01 Rocket 3.5 20:45:44 10° SSW 20:49:30 27° W 20:53:18 10° NW
Cosmos 724 4.3 20:46:35 10° SSW 20:52:14 57° ESE 20:57:55 10° NE
CZ-4B R/B 3.4 20:52:52 10° N 20:55:19 25° WNW 20:57:45 10° SW
Helios 1A Rocket 2.9 20:51:31 10° SSE 20:55:30 84° WSW 20:59:38 10° NNW
Cosmos 1624 Rocket 4.3 20:51:29 10° SSW 20:56:42 71° WNW 21:01:56 10° NNE
Lacrosse 5 rocket 2.4 20:55:23 10° WNW 20:58:51 32° SW 21:01:56 13° SSE
Cosmos 1271 Rocket 3.2 20:56:33 10° NNW 21:00:31 62° W 21:04:25 10° S
Cosmos 2082 Rocket 4.0 21:01:01 11° ESE 21:03:26 14° E 21:06:10 10° ENE
SPOT 3 Rocket 4.4 21:00:33 10° S 21:05:32 47° W 21:10:35 10° NNW
NOSS 2-1 (E) 4.2 21:01:19 10° NW 21:05:52 68° SW 21:11:18 14° SSE
ERS-1 Rocket 3.1 21:03:41 11° S 21:08:33 74° WSW 21:13:36 10° NNW
RESURS DK-1 2.7 21:05:52 10° NNW 21:09:57 57° NE 21:13:07 16° SE
CZ-2C R/B 3.7 21:11:49 10° NNE 21:16:28 83° ESE 21:20:58 10° SSW
ARIANE 5 R/B 2.6 21:18:10 16° SSE 21:21:45 88° W 21:26:13 10° NNW
Cosmos 1741 Rocket 4.0 21:16:24 10° NNW 21:21:45 86° ENE 21:25:51 17° SSE
Cosmos 2344 4.4 21:18:52 10° NW 21:27:28 73° NE 21:38:57 11° SE
SL-8 R/B 3.6 21:23:55 10° W 21:28:43 73° SSW 21:33:28 10° ESE
GP-B 4.1 21:27:22 10° NNE 21:31:24 33° E 21:33:53 19° SE
Cosmos 1455 3.9 21:28:16 10° NNW 21:31:33 27° W 21:34:48 10° SSW
Cosmos 2074 Rocket 4.3 21:28:20 10° NNW 21:34:34 68° W 21:40:08 13° S
ASTEX 1 3.8 21:34:44 10° NNE 21:39:36 49° E 21:42:46 21° SSE
COSMOS 2406 3.9 21:37:53 19° SSE 21:41:27 37° ESE 21:46:41 10° NE
Cosmos 2369 4.2 21:38:11 10° NNW 21:43:49 55° NE 21:48:09 17° SE
TSX-5 4.5 21:39:48 10° SSW 21:44:16 83° WNW 21:50:10 10° NNE
USA 267 3.2 21:37:52 10° ENE 21:44:23 65° SE 21:50:52 10° SW
SL-16 R/B 4.3 21:40:25 10° N 21:44:36 21° NE 21:48:47 10° E
Cosmos 1536 Rocket 4.5 21:43:51 10° SSW 21:48:00 46° WNW 21:52:12 10° N
Cosmos 2228 3.4 21:45:02 10° NNW 21:49:11 57° W 21:52:05 19° SSW
SPOT 5 4.4 21:46:49 10° SSW 21:50:29 25° W 21:54:06 10° NW
Tiangong 3.6 21:50:18 10° SW 21:50:37 11° SW 21:50:37 11° SW
Cosmos 1850 Rocket 4.5 21:46:45 10° NNW 21:51:50 53° WSW 21:55:21 19° S
Cosmos 1980 Rocket 2.6 21:46:49 10° NNW 21:52:27 56° NE 21:56:37 18° SE
Nadezhda 1 Rocket 4.0 21:47:09 13° S 21:52:35 87° W 21:58:42 10° N
Cosmos 1606 Rocket 3.5 21:49:58 10° NNW 21:54:18 78° W 21:56:56 23° S
Cosmos 1703 4.1 21:51:22 11° SSW 21:54:56 45° WNW 21:58:40 10° N
Cosmos 1697 Rocket 2.7 21:49:24 10° NNW 21:55:03 81° WSW 21:58:44 22° SSE
Cosmos 1892 3.6 21:55:58 25° SE 21:57:19 33° E 22:00:43 10° NNE
SJ 16-02 4.0 21:55:55 10° NNE 21:57:40 12° NE 21:59:24 10° ENE
Cosmos 2154 Rocket 4.3 21:53:14 10° NNW 21:59:24 63° W 22:04:14 17° S
Cosmos 2084 Rocket 3.6 21:56:17 10° NW 22:00:07 59° NE 22:02:44 20° ESE
Meteor 1-11 4.5 21:57:29 22° SSE 22:00:59 53° E 22:06:24 10° NNE
USA 276 1.9 22:01:33 10° W 22:04:34 87° N 22:07:35 10° E
Cosmos 1328 3.8 22:04:04 22° SSW 22:06:36 80° W 22:10:38 10° N
Cosmos 1331 Rocket 4.0 22:04:06 13° SSW 22:08:55 86° WNW 22:14:16 10° NNE
X-37B 1.8 22:11:26 10° WSW 22:12:57 24° SW 22:12:57 24° SW
Cosmos 1408 2.4 22:15:25 36° SSE 22:16:37 66° E 22:20:03 10° NNE
Lacrosse 5 3.6 22:14:36 10° W 22:18:11 19° SW 22:20:08 16° SSW
SAR-Lupe-4 4.1 22:15:14 10° N 22:18:45 55° WNW 22:20:59 20° SW
Cosmos 1726 Rocket 3.9 22:14:48 10° NNW 22:19:03 56° W 22:21:23 25° SSW
USA 234 3.2 22:14:24 17° SE 22:19:36 75° SW 22:26:12 10° WNW
Terra 3.8 22:17:10 10° SW 22:20:46 21° W 22:24:23 10° NW
ATLAS 2AS CENTAUR R/B 4.3 22:16:03 10° WNW 22:21:09 22° WSW 22:25:25 12° SSW
FALCON 9 DEB 4.2 22:18:41 10° WNW 22:21:50 42° N 22:24:58 10° E
Cosmos 1833 Rocket 2.9 22:18:09 10° SW 22:23:45 72° WNW 22:29:24 10° NNE
Cosmos 2322 Rocket 4.0 22:19:19 10° NNW 22:24:02 26° NE 22:28:45 10° E
Cosmos 1867 3.7 22:22:07 10° NW 22:27:37 75° NE 22:31:18 21° SE
Cosmos 2278 4.0 22:22:53 10° NNW 22:28:35 63° ENE 22:32:24 21° SE
SL-8 Rocket 4.0 22:23:39 10° N 22:29:57 89° W 22:33:46 25° S
ATLAS 5 CENTAUR R/B 3.0 22:30:25 17° ESE 22:30:25 17° ESE 22:32:41 10° ENE
ALOS 2 2.8 22:32:45 29° SE 22:34:52 64° ENE 22:39:14 10° N
Cosmos 1302 Rocket 3.9 22:31:56 23° SSW 22:35:14 82° ESE 22:40:27 10° NNE
Cosmos 2218 Rocket 4.0 22:35:34 10° N 22:42:01 86° W 22:45:53 26° S
Cosmos 2366 rocket 4.0 22:39:26 10° N 22:45:47 82° W 22:49:34 26° S
Cosmos 2082 Rocket 2.2 22:42:49 22° SSW 22:46:34 79° ESE 22:52:17 10° NNE
Cosmos 1602 Rocket 4.1 22:45:32 30° SE 22:47:05 43° E 22:51:11 10° NNE
RESURS DK-1 4.3 22:44:47 10° WNW 22:47:32 17° WSW 22:48:58 15° SW
H-2A R/B 3.5 22:45:19 10° NNE 22:49:31 68° ESE 22:51:09 35° S
Cosmos 2341 Rocket 4.4 22:44:00 10° NNW 22:50:11 56° W 22:54:07 22° SSW
Cosmos 2058 Rocket 3.8 22:48:50 10° NNW 22:53:01 43° W 22:55:04 26° SSW
Spot 4 4.2 22:52:43 29° SSW 22:54:58 55° W 22:59:41 10° NNW
Cosmos 1825 2.1 22:58:50 40° SSW 23:00:05 82° W 23:03:52 10° N
Cosmos 2360 Rocket 3.7 22:58:39 10° NNW 23:03:43 32° NE 23:08:44 10° ESE
Cosmos 968 Rocket 4.2 23:00:12 10° NW 23:05:03 41° WSW 23:07:22 26° SSW
ERS-2 2.5 23:01:38 10° NNE 23:05:08 47° E 23:05:53 39° SE
Cosmos-2242 3.2 23:02:20 10° N 23:06:33 61° ENE 23:08:16 33° SE
SL-8 R/B 4.4 23:06:35 10° W 23:10:52 32° SSW 23:11:22 32° SSW
Cosmos 1626 Rocket 3.6 23:10:22 33° SSW 23:12:15 72° W 23:16:36 10° N
Cosmos 1869 3.9 23:12:12 10° NNW 23:15:55 45° W 23:17:08 33° SW
Cosmos 1606 3.1 23:13:10 10° N 23:16:58 54° ENE 23:18:18 34° SE
BREEZE-M DEB (TANK) 3.9 23:14:10 10° W 23:17:42 83° SSW 23:32:31 10° ESE
Cosmos 2058 3.9 23:16:21 27° SE 23:17:45 35° E 23:21:36 10° NNE
Cosmos 1825 Rocket 4.1 23:22:58 31° SE 23:24:30 46° E 23:28:40 10° NNE
ADEOS Rocket 3.7 23:20:28 26° S 23:24:46 63° W 23:32:23 10° NNW
COSMOS 2406 4.2 23:20:11 10° SW 23:25:41 45° NW 23:31:13 10° NNE
Cosmos 1633 2.4 23:25:15 49° SSW 23:26:06 80° W 23:29:36 10° N
USA 267 3.8 23:20:59 10° ENE 23:27:23 60° NNW 23:33:48 10° W
SL-16 R/B 2.2 23:23:54 10° NNW 23:29:37 82° ENE 23:33:07 24° SSE
Okean 1-7 Rocket 4.5 23:27:29 23° SW 23:29:48 42° WNW 23:34:05 10° N
Meteor 2-20 4.4 23:32:16 28° SSW 23:35:43 83° W 23:41:51 10° N
Cosmos 1980 Rocket 3.4 23:31:21 10° NW 23:36:07 28° WSW 23:38:22 22° SW
SJ 16-02 1.5 23:32:38 10° NNW 23:37:05 71° ENE 23:39:13 30° SE
Cosmos 1486 Rocket 4.5 23:32:27 10° NNW 23:37:26 47° WSW 23:39:34 30° SSW
USA 276 1.9 23:37:19 10° W 23:40:20 81° N 23:43:21 10° E
Meteor 2-2 Rocket 4.5 23:36:17 10° N 23:42:17 75° ENE 23:45:55 25° SSE
Cosmos 1821 Rocket 4.2 23:36:21 10° NNW 23:42:33 64° W 23:45:54 28° SSW
Cosmos 2219 Rocket 4.0 23:39:08 10° NNW 23:44:05 30° NE 23:49:01 10° ESE
Cosmos 1340 Rocket 3.3 23:48:44 34° SE 23:49:58 47° E 23:53:47 10° NNE
CZ-2D R/B 4.2 23:47:07 10° NE 23:50:11 16° E 23:53:14 10° SE
